Location: Brno
(49.2000°N, 16.6333°E)
Time: 06:17:40
(UTC+02:00)

ISS - Pass Details

Date: 26 January 2019
Orbit: 411 x 421 km, 51.6° (Epoch: 16 October)

Event Time Altitude Azimuth Distance (km) Brightness Sun altitude
Rises 19:06:20 0° 259° (W) 2,369 1.4 -23.8°
Reaches altitude 10° 19:08:27 10° 262° (W) 1,507 0.1 -24.1°
Enters shadow 19:10:42 38° 274° (W) 658 -2.3 -24.5°
